SAS907 ENGM-KEWR

Flight info

Callsign SAS907
Flight time N/A
Altitude 34000
Route ATLAP DCT ORVIK DCT BALIX/M079F340 DCT 59N020W 5830N03000W 5630N04000W 53N050W DCT RIKAL/N0465F340 DCT TOPPS DCT ENE DCT BAF DCT IGN DCT FLOSI FLOSI4
Aircraft A21N/M-SDE2E3FGHIRWXY/LB1

Departure

Time 2026-05-04 10:20
Airport Oslo-Gardermoen International Airport (ENGM)

Arrival

Time N/A
Airport Newark Liberty International Airport (KEWR)
Time Latitude Longitude Altitude Speed Heading
2026-05-04 10:00 60.19358 11.10805 699 ft 0 kts 245°
2026-05-04 10:09 60.19360 11.10814 699 ft 1 kts 221°
2026-05-04 10:09 60.19372 11.10821 699 ft 2 kts 186°
2026-05-04 10:09 60.19386 11.10828 699 ft 2 kts 197°
2026-05-04 10:10 60.19401 11.10836 698 ft 2 kts 194°
2026-05-04 10:10 60.19415 11.10844 698 ft 2 kts 195°
2026-05-04 10:10 60.19429 11.10852 697 ft 2 kts 201°
2026-05-04 10:10 60.19443 11.10864 697 ft 2 kts 213°
2026-05-04 10:11 60.19452 11.10889 696 ft 2 kts 258°
2026-05-04 10:11 60.19452 11.10910 697 ft 0 kts 281°
2026-05-04 10:11 60.19451 11.10919 697 ft 0 kts 283°
2026-05-04 10:13 60.19451 11.10917 697 ft 1 kts 283°
2026-05-04 10:13 60.19481 11.10803 694 ft 16 kts 298°
2026-05-04 10:13 60.19524 11.10588 690 ft 14 kts 318°
2026-05-04 10:14 60.19660 11.10626 687 ft 23 kts 17°
2026-05-04 10:14 60.19796 11.10704 686 ft 20 kts 17°
2026-05-04 10:16 60.20107 11.08875 688 ft 20 kts 212°
2026-05-04 10:16 60.19959 11.08781 688 ft 20 kts 197°
2026-05-04 10:16 60.19849 11.08719 688 ft 12 kts 195°
2026-05-04 10:16 60.19723 11.08645 685 ft 24 kts 197°
2026-05-04 10:17 60.19547 11.08545 679 ft 26 kts 197°
2026-05-04 10:17 60.19379 11.08448 675 ft 23 kts 194°
2026-05-04 10:19 60.18529 11.07741 668 ft 19 kts 287°
2026-05-04 10:19 60.18561 11.07525 669 ft 13 kts 285°
2026-05-04 10:19 60.18614 11.07451 670 ft 8 kts 13°
2026-05-04 10:19 60.18735 11.07518 671 ft 53 kts 14°
2026-05-04 10:20 60.19413 11.07908 675 ft 147 kts 15°
2026-05-04 10:20 60.20573 11.08538 1201 ft 190 kts 12°
2026-05-04 10:20 60.21896 11.09271 1782 ft 208 kts 11°
2026-05-04 10:20 60.23362 11.10142 2475 ft 227 kts 11°
2026-05-04 10:21 60.24903 11.10980 3176 ft 227 kts
2026-05-04 10:21 60.26532 11.10963 3935 ft 235 kts 355°
2026-05-04 10:21 60.28189 11.10665 4663 ft 247 kts 341°
2026-05-04 10:21 60.29571 11.08826 5448 ft 240 kts 306°
2026-05-04 10:22 60.31321 11.02968 6991 ft 256 kts 283°
2026-05-04 10:22 60.31608 11.00172 7610 ft 261 kts 276°
2026-05-04 10:23 60.31692 10.98854 7882 ft 265 kts 275°
2026-05-04 10:23 60.31873 10.95166 8609 ft 265 kts 272°
2026-05-04 10:25 60.31401 10.64179 13897 ft 340 kts 262°
2026-05-04 10:25 60.31260 10.59362 14636 ft 343 kts 262°
2026-05-04 10:25 60.31115 10.54480 15369 ft 346 kts 262°
2026-05-04 10:25 60.30965 10.49527 16105 ft 350 kts 262°
2026-05-04 10:26 60.30817 10.44647 16824 ft 353 kts 262°
2026-05-04 10:26 60.30659 10.39534 17569 ft 357 kts 262°
2026-05-04 10:26 60.30501 10.34476 18300 ft 360 kts 261°
2026-05-04 10:26 60.30337 10.29313 19044 ft 363 kts 261°
2026-05-04 10:27 60.30171 10.24109 19787 ft 367 kts 261°
2026-05-04 10:27 60.30004 10.18956 20516 ft 371 kts 261°
2026-05-04 10:27 60.29829 10.13626 21261 ft 374 kts 261°
2026-05-04 10:27 60.29654 10.08384 21987 ft 378 kts 261°
2026-05-04 10:28 60.29474 10.03025 22720 ft 382 kts 261°
2026-05-04 10:28 60.29289 9.97586 23458 ft 386 kts 261°
2026-05-04 10:28 60.29098 9.92034 24202 ft 390 kts 261°
2026-05-04 10:28 60.28905 9.86499 24921 ft 394 kts 261°
2026-05-04 10:29 60.28708 9.80936 25516 ft 398 kts 261°
2026-05-04 10:29 60.28507 9.75286 26123 ft 401 kts 261°
2026-05-04 10:29 60.28303 9.69639 26724 ft 404 kts 261°
2026-05-04 10:29 60.28096 9.63969 27323 ft 407 kts 261°
2026-05-04 10:30 60.27881 9.58173 27930 ft 411 kts 261°
2026-05-04 10:30 60.27664 9.52384 28530 ft 414 kts 261°
2026-05-04 10:30 60.27442 9.46525 29133 ft 418 kts 261°
2026-05-04 10:30 60.27218 9.40672 29729 ft 420 kts 261°
2026-05-04 10:31 60.26989 9.34737 30292 ft 419 kts 260°
2026-05-04 10:31 60.26758 9.28835 30812 ft 416 kts 260°
2026-05-04 10:32 60.25339 8.94065 33759 ft 411 kts 260°
2026-05-04 10:33 60.24850 8.82550 33771 ft 409 kts 260°
2026-05-04 10:33 60.24354 8.71132 33772 ft 408 kts 259°
2026-05-04 10:34 60.23846 8.59656 33771 ft 408 kts 259°
2026-05-04 10:34 60.23326 8.48152 33771 ft 408 kts 259°
2026-05-04 10:35 60.22799 8.36719 33770 ft 408 kts 259°
2026-05-04 10:35 60.22261 8.25243 33774 ft 407 kts 259°
2026-05-04 10:36 60.21712 8.13762 33774 ft 407 kts 259°
2026-05-04 10:36 60.21155 8.02329 33773 ft 407 kts 259°
2026-05-04 10:37 60.20591 7.90931 33773 ft 407 kts 259°
2026-05-04 10:37 60.20012 7.79470 33743 ft 406 kts 259°
2026-05-04 10:39 60.17919 7.39531 33742 ft 406 kts 259°
2026-05-04 10:40 60.17299 7.28136 33747 ft 406 kts 258°
2026-05-04 10:40 60.16669 7.16717 33747 ft 405 kts 258°
2026-05-04 10:41 60.16030 7.05319 33745 ft 402 kts 258°
2026-05-04 10:41 60.15390 6.94107 33745 ft 399 kts 258°
2026-05-04 10:42 60.14739 6.82877 33744 ft 399 kts 258°
2026-05-04 10:42 60.14077 6.71607 33743 ft 399 kts 258°
2026-05-04 10:43 60.13409 6.60397 33750 ft 399 kts 258°
2026-05-04 10:44 60.10995 6.21217 33878 ft 398 kts 257°
2026-05-04 10:45 60.10647 6.15712 33880 ft 399 kts 257°
2026-05-04 10:45 60.09930 6.04506 33880 ft 398 kts 257°
2026-05-04 10:46 60.09206 5.93340 33879 ft 398 kts 257°
2026-05-04 10:46 60.08472 5.82171 33878 ft 398 kts 257°
2026-05-04 10:47 60.07723 5.70925 33876 ft 399 kts 257°
2026-05-04 10:47 60.06971 5.59785 33870 ft 399 kts 257°
2026-05-04 10:49 60.03878 5.15378 33865 ft 398 kts 256°
2026-05-04 10:50 60.03089 5.04382 33855 ft 398 kts 256°
2026-05-04 10:52 59.99771 4.59563 33849 ft 405 kts 256°
2026-05-04 10:52 59.98916 4.48346 33849 ft 405 kts 256°
2026-05-04 10:54 59.95392 4.03430 33851 ft 403 kts 255°
2026-05-04 10:56 59.91699 3.58404 33848 ft 403 kts 255°
2026-05-04 10:57 59.90754 3.47184 33858 ft 403 kts 255°
2026-05-04 10:57 59.89785 3.35821 33878 ft 403 kts 255°
2026-05-04 10:58 59.88822 3.24635 33891 ft 403 kts 254°
2026-05-04 10:58 59.87851 3.13461 33891 ft 402 kts 254°
2026-05-04 10:59 59.86859 3.02202 33890 ft 405 kts 255°
2026-05-04 10:59 59.85853 2.90877 33889 ft 409 kts 255°
2026-05-04 11:00 59.84833 2.79489 33888 ft 410 kts 255°
2026-05-04 11:02 59.80651 2.34031 33907 ft 410 kts 254°
2026-05-04 11:05 59.72393 1.49160 33936 ft 410 kts 254°
2026-05-04 11:06 59.71252 1.37882 33927 ft 410 kts 254°
2026-05-04 11:06 59.70095 1.26564 33934 ft 409 kts 253°
2026-05-04 11:10 59.63435 0.46371 33938 ft 420 kts 264°
2026-05-04 11:12 59.62416 -0.00545 33940 ft 419 kts 263°
2026-05-04 11:12 59.62137 -0.12211 33939 ft 419 kts 263°
2026-05-04 11:13 59.61846 -0.23936 33939 ft 419 kts 263°
2026-05-04 11:13 59.61545 -0.35659 33938 ft 419 kts 263°
2026-05-04 11:14 59.61231 -0.47427 33938 ft 419 kts 263°
2026-05-04 11:16 59.59880 -0.94259 33940 ft 419 kts 262°
2026-05-04 11:16 59.59516 -1.05938 33940 ft 419 kts 262°
2026-05-04 11:17 59.59140 -1.17661 33939 ft 419 kts 263°
2026-05-04 11:19 59.57540 -1.64431 33937 ft 419 kts 263°
2026-05-04 11:19 59.57113 -1.76110 33941 ft 419 kts 262°
2026-05-04 11:20 59.56679 -1.87735 33940 ft 418 kts 262°
2026-05-04 11:20 59.56232 -1.99407 33939 ft 418 kts 262°
2026-05-04 11:22 59.54339 -2.46103 33938 ft 418 kts 262°
2026-05-04 11:23 59.53840 -2.57756 33937 ft 419 kts 262°
2026-05-04 11:25 59.52013 -2.98468 33939 ft 418 kts 262°
2026-05-04 11:25 59.51463 -3.10173 33939 ft 419 kts 262°
2026-05-04 11:27 59.48877 -3.62615 33937 ft 419 kts 262°
2026-05-04 11:28 59.48274 -3.74257 33941 ft 419 kts 262°
2026-05-04 11:28 59.47664 -3.85830 33939 ft 419 kts 262°
2026-05-04 11:29 59.47039 -3.97480 33941 ft 419 kts 261°
2026-05-04 11:29 59.46402 -4.09139 33938 ft 419 kts 261°
2026-05-04 11:33 59.41675 -4.90343 33979 ft 421 kts 261°
2026-05-04 11:33 59.40950 -5.02050 33990 ft 424 kts 261°
2026-05-04 11:34 59.40219 -5.13719 33990 ft 425 kts 261°
2026-05-04 11:34 59.39467 -5.25521 33989 ft 425 kts 261°
2026-05-04 11:35 59.38712 -5.37204 33989 ft 425 kts 261°
2026-05-04 11:35 59.37944 -5.48922 33991 ft 425 kts 261°
2026-05-04 11:36 59.37163 -5.60682 33992 ft 425 kts 261°
2026-05-04 11:36 59.36373 -5.72371 33994 ft 425 kts 261°
2026-05-04 11:37 59.35579 -5.84021 33992 ft 425 kts 260°
2026-05-04 11:37 59.34769 -5.95712 33993 ft 425 kts 260°
2026-05-04 11:38 59.33950 -6.07380 33992 ft 424 kts 260°
2026-05-04 11:38 59.33121 -6.19031 33993 ft 424 kts 260°
2026-05-04 11:39 59.32276 -6.30767 33990 ft 424 kts 260°
2026-05-04 11:41 59.29250 -6.71573 33992 ft 425 kts 259°
2026-05-04 11:41 59.28363 -6.83218 33989 ft 424 kts 259°
2026-05-04 11:42 59.27469 -6.94800 33991 ft 424 kts 259°
2026-05-04 11:42 59.26559 -7.06455 33993 ft 425 kts 259°
2026-05-04 11:43 59.25633 -7.18178 33992 ft 427 kts 259°
2026-05-04 11:43 59.24700 -7.29843 33991 ft 427 kts 259°
2026-05-04 11:44 59.23753 -7.41550 33988 ft 427 kts 259°
2026-05-04 11:44 59.22795 -7.53245 33993 ft 427 kts 259°
2026-05-04 11:45 59.21828 -7.64923 33991 ft 427 kts 259°
2026-05-04 11:45 59.20849 -7.76615 33998 ft 427 kts 258°
2026-05-04 11:46 59.19855 -7.88278 34011 ft 427 kts 258°
2026-05-04 11:46 59.18862 -7.99931 34018 ft 427 kts 258°
2026-05-04 11:47 59.17855 -8.11575 34017 ft 427 kts 258°
2026-05-04 11:47 59.16837 -8.23207 34017 ft 427 kts 258°
2026-05-04 11:48 59.15808 -8.34846 34017 ft 427 kts 258°
2026-05-04 11:48 59.14764 -8.46513 34014 ft 427 kts 258°
2026-05-04 11:49 59.13715 -8.58129 34016 ft 427 kts 258°
2026-05-04 11:49 59.12654 -8.69744 34019 ft 427 kts 258°
2026-05-04 11:50 59.11586 -8.81317 34018 ft 427 kts 258°
2026-05-04 11:50 59.10498 -8.92985 34017 ft 428 kts 258°
2026-05-04 11:51 59.09403 -9.04615 34015 ft 430 kts 258°
2026-05-04 11:51 59.08292 -9.16294 34016 ft 432 kts 258°
2026-05-04 11:52 59.07165 -9.28026 34016 ft 431 kts 258°
2026-05-04 11:52 59.06036 -9.39660 34016 ft 431 kts 258°
2026-05-04 11:53 59.04886 -9.51383 34017 ft 432 kts 258°
2026-05-04 11:53 59.03726 -9.63112 34018 ft 431 kts 258°
2026-05-04 11:55 59.00390 -10.09861 34018 ft 433 kts 272°
2026-05-04 11:56 59.00822 -10.21702 34013 ft 433 kts 272°
2026-05-04 11:56 59.01256 -10.33620 34017 ft 433 kts 272°
2026-05-04 11:57 59.01677 -10.45538 34016 ft 433 kts 272°
2026-05-04 11:57 59.02092 -10.57433 34015 ft 434 kts 272°
2026-05-04 11:58 59.02491 -10.69375 34019 ft 434 kts 271°
2026-05-04 11:58 59.02884 -10.81329 34020 ft 434 kts 271°
2026-05-04 11:59 59.03264 -10.93314 34019 ft 437 kts 271°
2026-05-04 11:59 59.03636 -11.05336 34019 ft 439 kts 272°
2026-05-04 12:00 59.03999 -11.17439 34018 ft 440 kts 272°
2026-05-04 12:00 59.04352 -11.29575 34018 ft 439 kts 272°
2026-05-04 12:01 59.04691 -11.41639 34018 ft 439 kts 272°
2026-05-04 12:02 59.05793 -11.84054 34019 ft 439 kts 271°
2026-05-04 12:03 59.06083 -11.96213 34018 ft 439 kts 271°
2026-05-04 12:03 59.06360 -12.08282 34018 ft 439 kts 271°
2026-05-04 12:04 59.06627 -12.20389 34018 ft 439 kts 271°
2026-05-04 12:04 59.06885 -12.32522 34018 ft 439 kts 271°
2026-05-04 12:05 59.07128 -12.44689 34018 ft 439 kts 271°
2026-05-04 12:05 59.07360 -12.56843 34017 ft 439 kts 271°
2026-05-04 12:06 59.07581 -12.68939 34019 ft 439 kts 270°
2026-05-04 12:06 59.07790 -12.81023 34039 ft 439 kts 270°
2026-05-04 12:07 59.07987 -12.93030 34078 ft 439 kts 270°
2026-05-04 12:07 59.08173 -13.05104 34099 ft 441 kts 270°
2026-05-04 12:08 59.08350 -13.17277 34099 ft 443 kts 270°
2026-05-04 12:08 59.08517 -13.29521 34099 ft 444 kts 270°
2026-05-04 12:09 59.08672 -13.41751 34099 ft 444 kts 270°
2026-05-04 12:09 59.08815 -13.53951 34099 ft 444 kts 270°
2026-05-04 12:10 59.08947 -13.66206 34099 ft 444 kts 270°
2026-05-04 12:10 59.09066 -13.78417 34100 ft 444 kts 270°
2026-05-04 12:11 59.09175 -13.90605 34100 ft 444 kts 270°
2026-05-04 12:11 59.09272 -14.02817 34100 ft 444 kts 270°
2026-05-04 12:12 59.09358 -14.15033 34100 ft 444 kts 270°
2026-05-04 12:12 59.09432 -14.27268 34100 ft 444 kts 270°
2026-05-04 12:14 59.09613 -14.76179 34100 ft 444 kts 269°
2026-05-04 12:15 59.09630 -14.88400 34100 ft 444 kts 269°
2026-05-04 12:15 59.09634 -15.00638 34100 ft 444 kts 269°
2026-05-04 12:16 59.09627 -15.12959 34100 ft 446 kts 269°
2026-05-04 12:16 59.09611 -15.25184 34100 ft 446 kts 269°
2026-05-04 12:17 59.09581 -15.37447 34100 ft 446 kts 269°
2026-05-04 12:17 59.09540 -15.49770 34100 ft 446 kts 269°
2026-05-04 12:18 59.09487 -15.62031 34100 ft 446 kts 269°
2026-05-04 12:18 59.09423 -15.74285 34101 ft 446 kts 269°
2026-05-04 12:19 59.09347 -15.86599 34101 ft 446 kts 269°
2026-05-04 12:19 59.09259 -15.98816 34100 ft 446 kts 269°
2026-05-04 12:20 59.09160 -16.11112 34100 ft 446 kts 269°
2026-05-04 12:20 59.09050 -16.23358 34100 ft 446 kts 269°
2026-05-04 12:21 59.08927 -16.35699 34100 ft 446 kts 269°
2026-05-04 12:21 59.08794 -16.47925 34100 ft 446 kts 269°
2026-05-04 12:22 59.08648 -16.60224 34100 ft 446 kts 269°
2026-05-04 12:22 59.08485 -16.72435 34101 ft 446 kts 268°
2026-05-04 12:23 59.08321 -16.84708 34101 ft 445 kts 268°
2026-05-04 12:23 59.08141 -16.96942 34101 ft 447 kts 268°
2026-05-04 12:24 59.07949 -17.09334 34102 ft 449 kts 269°
2026-05-04 12:24 59.07745 -17.21653 34101 ft 449 kts 269°
2026-05-04 12:25 59.07529 -17.33981 34101 ft 449 kts 269°
2026-05-04 12:25 59.07301 -17.46336 34101 ft 449 kts 269°
2026-05-04 12:26 59.07059 -17.58720 34101 ft 449 kts 269°
2026-05-04 12:26 59.06808 -17.71041 34101 ft 449 kts 268°
2026-05-04 12:27 59.06544 -17.83388 34101 ft 449 kts 268°
2026-05-04 12:27 59.06271 -17.95665 34101 ft 449 kts 268°
2026-05-04 12:28 59.05987 -18.08029 34101 ft 449 kts 268°
2026-05-04 12:28 59.05685 -18.20344 34101 ft 449 kts 268°
2026-05-04 12:29 59.05376 -18.32630 34101 ft 449 kts 268°
2026-05-04 12:29 59.05053 -18.44990 34101 ft 449 kts 268°
2026-05-04 12:30 59.04722 -18.57263 34101 ft 449 kts 268°
2026-05-04 12:30 59.04376 -18.69582 34101 ft 449 kts 267°
2026-05-04 12:31 59.04018 -18.81951 34101 ft 449 kts 267°
2026-05-04 12:31 59.03650 -18.94227 34101 ft 448 kts 267°
2026-05-04 12:32 59.03075 -19.12657 34101 ft 448 kts 267°
2026-05-04 12:33 59.02678 -19.24980 34102 ft 449 kts 268°
2026-05-04 12:33 59.02270 -19.37258 34102 ft 448 kts 268°
2026-05-04 12:34 59.01850 -19.49546 34102 ft 448 kts 268°
2026-05-04 12:34 59.01416 -19.61867 34102 ft 448 kts 268°
2026-05-04 12:35 59.00975 -19.74074 34102 ft 448 kts 266°
2026-05-04 12:35 59.00517 -19.86351 34102 ft 448 kts 266°
2026-05-04 12:36 59.00034 -19.98672 34101 ft 448 kts 265°
2026-05-04 12:36 58.99352 -20.10871 34102 ft 447 kts 264°
2026-05-04 12:37 58.98616 -20.23087 34102 ft 447 kts 264°
2026-05-04 12:37 58.97871 -20.35226 34102 ft 447 kts 264°
2026-05-04 12:38 58.97110 -20.47436 34101 ft 446 kts 264°
2026-05-04 12:38 58.96343 -20.59550 34101 ft 446 kts 264°
2026-05-04 12:39 58.95557 -20.71772 34102 ft 446 kts 263°
2026-05-04 12:39 58.94765 -20.83908 34102 ft 445 kts 263°
2026-05-04 12:40 58.93963 -20.96016 34102 ft 446 kts 264°
2026-05-04 12:40 58.93147 -21.08162 34103 ft 448 kts 264°
2026-05-04 12:41 58.92319 -21.20331 34103 ft 449 kts 264°
2026-05-04 12:41 58.91480 -21.32551 34103 ft 448 kts 264°
2026-05-04 12:42 58.90624 -21.44692 34103 ft 448 kts 264°
2026-05-04 12:42 58.89756 -21.56906 34100 ft 448 kts 264°
2026-05-04 12:43 58.88880 -21.69063 34100 ft 447 kts 263°
2026-05-04 12:43 58.87996 -21.81168 34100 ft 447 kts 263°
2026-05-04 12:44 58.87104 -21.93236 34100 ft 447 kts 263°
2026-05-04 12:44 58.86196 -22.05340 34100 ft 447 kts 263°
2026-05-04 12:45 58.85275 -22.17476 34099 ft 447 kts 263°
2026-05-04 12:45 58.84349 -22.29518 34099 ft 447 kts 263°
2026-05-04 12:46 58.83406 -22.41628 34099 ft 447 kts 263°
2026-05-04 12:46 58.82455 -22.53680 34099 ft 447 kts 263°
2026-05-04 12:47 58.81490 -22.65775 34129 ft 447 kts 263°
2026-05-04 12:47 58.80519 -22.77787 34183 ft 447 kts 263°
2026-05-04 12:48 58.79531 -22.89864 34207 ft 447 kts 263°
2026-05-04 12:48 58.78536 -23.01880 34208 ft 448 kts 263°
2026-05-04 12:49 58.77525 -23.13959 34208 ft 448 kts 263°
2026-05-04 12:49 58.76503 -23.26026 34208 ft 448 kts 263°
2026-05-04 12:50 58.75469 -23.38089 34208 ft 448 kts 263°
2026-05-04 12:50 58.74427 -23.50110 34207 ft 448 kts 263°
2026-05-04 12:51 58.73365 -23.62214 34207 ft 448 kts 263°
2026-05-04 12:51 58.72299 -23.74241 34208 ft 448 kts 262°
2026-05-04 12:52 58.71222 -23.86258 34208 ft 448 kts 262°
2026-05-04 12:52 58.70130 -23.98296 34208 ft 448 kts 262°
2026-05-04 12:53 58.69037 -24.10231 34208 ft 448 kts 262°
2026-05-04 12:53 58.67918 -24.22309 34208 ft 449 kts 262°
2026-05-04 12:54 58.66800 -24.34252 34208 ft 449 kts 262°
2026-05-04 12:54 58.65664 -24.46259 34208 ft 449 kts 262°
2026-05-04 12:55 58.64516 -24.58272 34208 ft 449 kts 262°
2026-05-04 12:55 58.63356 -24.70284 34209 ft 449 kts 261°
2026-05-04 12:56 58.62185 -24.82279 34209 ft 449 kts 261°
2026-05-04 12:56 58.61013 -24.94168 34208 ft 449 kts 261°
2026-05-04 12:57 58.59816 -25.06180 34208 ft 449 kts 262°
2026-05-04 12:57 58.58616 -25.18112 34208 ft 450 kts 262°
2026-05-04 12:58 58.57391 -25.30182 34208 ft 450 kts 262°
2026-05-04 12:58 58.56169 -25.42102 34208 ft 450 kts 262°
2026-05-04 12:59 58.54933 -25.54030 34208 ft 450 kts 262°
2026-05-04 12:59 58.53680 -25.66013 34208 ft 450 kts 261°
2026-05-04 13:00 58.52413 -25.78013 34209 ft 450 kts 261°
2026-05-04 13:00 58.51143 -25.89933 34209 ft 450 kts 261°
2026-05-04 13:01 58.49862 -26.01834 34209 ft 450 kts 261°
2026-05-04 13:01 58.48563 -26.13795 34209 ft 450 kts 261°
2026-05-04 13:02 58.47262 -26.25668 34209 ft 450 kts 261°
2026-05-04 13:02 58.45942 -26.37601 34209 ft 450 kts 261°
2026-05-04 13:03 58.44612 -26.49519 34209 ft 450 kts 261°
2026-05-04 13:03 58.43272 -26.61414 34209 ft 450 kts 261°
2026-05-04 13:04 58.41926 -26.73259 34210 ft 450 kts 260°
2026-05-04 13:04 58.40564 -26.85134 34210 ft 450 kts 260°
2026-05-04 13:05 58.39198 -26.96946 34210 ft 450 kts 260°
2026-05-04 13:05 58.37812 -27.08816 34210 ft 449 kts 260°
2026-05-04 13:06 58.36426 -27.20596 34209 ft 448 kts 260°
2026-05-04 13:06 58.35025 -27.32400 34209 ft 448 kts 260°
2026-05-04 13:07 58.33617 -27.44164 34209 ft 448 kts 260°
2026-05-04 13:07 58.32187 -27.56006 34209 ft 448 kts 260°
2026-05-04 13:08 58.30751 -27.67803 34210 ft 449 kts 259°
2026-05-04 13:08 58.29308 -27.79552 34258 ft 449 kts 259°
2026-05-04 13:09 58.27856 -27.91282 34291 ft 449 kts 259°
2026-05-04 13:09 58.26387 -28.03018 34291 ft 449 kts 259°
2026-05-04 13:10 58.24914 -28.14747 34291 ft 449 kts 259°
2026-05-04 13:10 58.23427 -28.26478 34291 ft 449 kts 259°
2026-05-04 13:11 58.21927 -28.38206 34291 ft 449 kts 259°
2026-05-04 13:11 58.20424 -28.49871 34291 ft 449 kts 259°
2026-05-04 13:12 58.18903 -28.61577 34291 ft 449 kts 259°
2026-05-04 13:12 58.17370 -28.73283 34292 ft 449 kts 258°
2026-05-04 13:13 58.15825 -28.84990 34292 ft 449 kts 258°
2026-05-04 13:13 58.14270 -28.96683 34292 ft 449 kts 258°
2026-05-04 13:14 58.12705 -29.08359 34292 ft 448 kts 258°
2026-05-04 13:14 58.11132 -29.19997 34292 ft 448 kts 258°
2026-05-04 13:15 58.09546 -29.31658 34292 ft 448 kts 258°
2026-05-04 13:15 58.07951 -29.43286 34292 ft 448 kts 258°
2026-05-04 13:16 58.06343 -29.54917 34292 ft 448 kts 258°
2026-05-04 13:16 58.04729 -29.66518 34292 ft 449 kts 258°
2026-05-04 13:17 58.03104 -29.78105 34293 ft 449 kts 258°
2026-05-04 13:17 58.01464 -29.89711 34305 ft 449 kts 258°
2026-05-04 13:18 57.99802 -30.01237 34318 ft 449 kts 257°
2026-05-04 13:18 57.98057 -30.12805 34320 ft 449 kts 257°
2026-05-04 13:19 57.96301 -30.24298 34320 ft 449 kts 257°
2026-05-04 13:19 57.94523 -30.35850 34320 ft 449 kts 257°
2026-05-04 13:20 57.92742 -30.47343 34320 ft 449 kts 257°
2026-05-04 13:20 57.90956 -30.58792 34320 ft 449 kts 257°
2026-05-04 13:21 57.89162 -30.70216 34315 ft 449 kts 256°
2026-05-04 13:21 57.87339 -30.81743 34315 ft 449 kts 256°
2026-05-04 13:22 57.85513 -30.93219 34315 ft 449 kts 256°
2026-05-04 13:22 57.83689 -31.04596 34315 ft 448 kts 256°
2026-05-04 13:23 57.81844 -31.16034 34315 ft 447 kts 256°
2026-05-04 13:23 57.79994 -31.27430 34315 ft 448 kts 256°
2026-05-04 13:24 57.78133 -31.38814 34315 ft 448 kts 256°
2026-05-04 13:24 57.76255 -31.50229 34315 ft 448 kts 256°
2026-05-04 13:25 57.73437 -31.67228 34315 ft 448 kts 255°
2026-05-04 13:25 57.71533 -31.78616 34316 ft 448 kts 255°
2026-05-04 13:26 57.69632 -31.89916 34316 ft 448 kts 255°
2026-05-04 13:26 57.67724 -32.01185 34316 ft 448 kts 255°
2026-05-04 13:27 57.65803 -32.12458 34316 ft 448 kts 255°
2026-05-04 13:27 57.63855 -32.23821 34316 ft 448 kts 255°
2026-05-04 13:28 57.61908 -32.35104 34316 ft 448 kts 255°
2026-05-04 13:28 57.59951 -32.46381 34316 ft 448 kts 255°
2026-05-04 13:29 57.57983 -32.57645 34316 ft 448 kts 255°
2026-05-04 13:29 57.56002 -32.68917 34317 ft 448 kts 255°
2026-05-04 13:30 57.54022 -32.80112 34317 ft 448 kts 255°
2026-05-04 13:30 57.52033 -32.91293 34317 ft 448 kts 255°
2026-05-04 13:31 57.50024 -33.02517 34317 ft 450 kts 254°
2026-05-04 13:31 57.47987 -33.13827 34317 ft 451 kts 254°
2026-05-04 13:32 57.45956 -33.25038 34317 ft 451 kts 254°
2026-05-04 13:32 57.43911 -33.36259 34317 ft 451 kts 254°
2026-05-04 13:33 57.41845 -33.47524 34317 ft 450 kts 254°
2026-05-04 13:33 57.39771 -33.58767 34317 ft 450 kts 254°
2026-05-04 13:34 57.37695 -33.69955 34318 ft 451 kts 253°
2026-05-04 13:34 57.35598 -33.81191 34318 ft 451 kts 253°
2026-05-04 13:35 57.32446 -33.97949 34318 ft 451 kts 253°
2026-05-04 13:36 57.30338 -34.09077 34318 ft 451 kts 253°
2026-05-04 13:36 57.28205 -34.20271 34318 ft 451 kts 253°
2026-05-04 13:37 57.26082 -34.31357 34318 ft 451 kts 253°
2026-05-04 13:37 57.23938 -34.42477 34318 ft 451 kts 253°
2026-05-04 13:38 57.21780 -34.53614 34318 ft 451 kts 253°
2026-05-04 13:38 57.19616 -34.64709 34318 ft 451 kts 253°
2026-05-04 13:39 57.17439 -34.75818 34319 ft 452 kts 252°
2026-05-04 13:39 57.15242 -34.86950 34319 ft 452 kts 253°
2026-05-04 13:40 57.13039 -34.98060 34320 ft 454 kts 253°
2026-05-04 13:40 57.10824 -35.09169 34320 ft 454 kts 253°
2026-05-04 13:41 57.08595 -35.20283 34320 ft 452 kts 253°
2026-05-04 13:41 57.06368 -35.31332 34320 ft 450 kts 253°
2026-05-04 13:42 57.03043 -35.47706 34319 ft 447 kts 253°
2026-05-04 13:42 57.00822 -35.58569 34319 ft 446 kts 253°
2026-05-04 13:43 56.98588 -35.69434 34321 ft 444 kts 253°
2026-05-04 13:43 56.96373 -35.80153 34321 ft 442 kts 253°
2026-05-04 13:44 56.94149 -35.90854 34323 ft 441 kts 253°
2026-05-04 13:44 56.91899 -36.01628 34322 ft 442 kts 253°
2026-05-04 13:45 56.89660 -36.12291 34320 ft 441 kts 253°
2026-05-04 13:45 56.87406 -36.22968 34315 ft 441 kts 253°
2026-05-04 13:46 56.85144 -36.33625 34316 ft 442 kts 253°
2026-05-04 13:46 56.82863 -36.44322 34315 ft 441 kts 253°
2026-05-04 13:47 56.80573 -36.55002 34315 ft 442 kts 253°
2026-05-04 13:47 56.78291 -36.65586 34313 ft 441 kts 252°
2026-05-04 13:48 56.75984 -36.76236 34316 ft 442 kts 252°
2026-05-04 13:48 56.73669 -36.86868 34317 ft 442 kts 252°
2026-05-04 13:49 56.71352 -36.97453 34315 ft 442 kts 252°
2026-05-04 13:49 56.69014 -37.08076 34315 ft 444 kts 252°
2026-05-04 13:50 56.66653 -37.18753 34314 ft 447 kts 252°
2026-05-04 13:50 56.64276 -37.29451 34316 ft 447 kts 252°
2026-05-04 13:51 56.61889 -37.40132 34315 ft 447 kts 252°
2026-05-04 13:51 56.59495 -37.50794 34309 ft 447 kts 252°
2026-05-04 13:52 56.55888 -37.66756 34253 ft 447 kts 251°
2026-05-04 13:53 56.53469 -37.77393 34201 ft 448 kts 252°
2026-05-04 13:53 56.51025 -37.88086 34168 ft 449 kts 251°
2026-05-04 13:54 56.47359 -38.04026 34155 ft 448 kts 252°
2026-05-04 13:55 56.43664 -38.19970 34154 ft 449 kts 252°
2026-05-04 13:55 56.39957 -38.35851 34154 ft 449 kts 251°
2026-05-04 13:56 56.37470 -38.46435 34154 ft 449 kts 252°
2026-05-04 13:57 56.33728 -38.62269 34154 ft 449 kts 252°
2026-05-04 13:58 56.28693 -38.83395 34160 ft 450 kts 251°
2026-05-04 13:58 56.24872 -38.99272 34156 ft 451 kts 252°
2026-05-04 13:59 56.22322 -39.09811 34156 ft 454 kts 252°
2026-05-04 14:00 56.18457 -39.25708 34156 ft 455 kts 253°
2026-05-04 14:00 56.14559 -39.41607 34159 ft 455 kts 253°
2026-05-04 14:01 56.11936 -39.52241 34160 ft 456 kts 253°
2026-05-04 14:02 56.07998 -39.68113 34163 ft 456 kts 252°
2026-05-04 14:02 56.05358 -39.78690 34161 ft 455 kts 252°
2026-05-04 14:03 56.02726 -39.89184 34161 ft 454 kts 252°
2026-05-04 14:03 56.00078 -39.99736 34162 ft 456 kts 252°
2026-05-04 14:04 55.96242 -40.15636 34164 ft 454 kts 253°
2026-05-04 14:04 55.93689 -40.26192 34160 ft 455 kts 253°
2026-05-04 14:05 55.89824 -40.42080 34160 ft 454 kts 253°
2026-05-04 14:06 55.87247 -40.52611 34149 ft 454 kts 253°
2026-05-04 14:06 55.84671 -40.63082 34150 ft 454 kts 253°
2026-05-04 14:07 55.82073 -40.73596 34155 ft 454 kts 252°
2026-05-04 14:07 55.79465 -40.84097 34153 ft 456 kts 252°
2026-05-04 14:08 55.76851 -40.94559 34151 ft 454 kts 254°
2026-05-04 14:08 55.74240 -41.04979 34152 ft 455 kts 255°
2026-05-04 14:09 55.70292 -41.20652 34149 ft 454 kts 255°
2026-05-04 14:10 55.66312 -41.36330 34153 ft 454 kts 255°
2026-05-04 14:10 55.63649 -41.46754 34149 ft 454 kts 255°
2026-05-04 14:11 55.60970 -41.57194 34150 ft 455 kts 255°
2026-05-04 14:11 55.56956 -41.72747 34158 ft 456 kts 254°
2026-05-04 14:12 55.54248 -41.83173 34152 ft 455 kts 254°
2026-05-04 14:13 55.50200 -41.98684 34152 ft 457 kts 254°
2026-05-04 14:13 55.47488 -42.09006 34153 ft 457 kts 254°
2026-05-04 14:14 55.44750 -42.19382 34155 ft 455 kts 254°
2026-05-04 14:14 55.40642 -42.34864 34152 ft 455 kts 254°
2026-05-04 14:15 55.35148 -42.55377 34156 ft 455 kts 254°
2026-05-04 14:16 55.30992 -42.70792 34157 ft 457 kts 253°
2026-05-04 14:17 55.26812 -42.86192 34158 ft 457 kts 253°
2026-05-04 14:18 55.22610 -43.01564 34161 ft 458 kts 254°
2026-05-04 14:19 55.16905 -43.22279 34161 ft 466 kts 256°
2026-05-04 14:19 55.14008 -43.32737 34161 ft 466 kts 256°
2026-05-04 14:20 55.11123 -43.43091 34166 ft 465 kts 256°
2026-05-04 14:20 55.08218 -43.53478 34164 ft 464 kts 256°
2026-05-04 14:21 55.03845 -43.69024 34166 ft 468 kts 255°
2026-05-04 14:21 55.00923 -43.79333 34166 ft 464 kts 256°
2026-05-04 14:22 54.98010 -43.89587 34169 ft 461 kts 256°
2026-05-04 14:22 54.95110 -43.99755 34168 ft 458 kts 256°
2026-05-04 14:23 54.90745 -44.14962 34168 ft 456 kts 256°
2026-05-04 14:24 54.87860 -44.24960 34144 ft 452 kts 256°
2026-05-04 14:24 54.84980 -44.34907 34145 ft 453 kts 256°
2026-05-04 14:25 54.82090 -44.44840 34145 ft 454 kts 256°
2026-05-04 14:25 54.77740 -44.59740 34145 ft 453 kts 256°
2026-05-04 14:26 54.74826 -44.69648 34151 ft 454 kts 256°
2026-05-04 14:26 54.71875 -44.79637 34151 ft 454 kts 256°
2026-05-04 14:27 54.68931 -44.89525 34150 ft 454 kts 256°
2026-05-04 14:27 54.65974 -44.99459 34151 ft 459 kts 256°
2026-05-04 14:28 54.62964 -45.09520 34150 ft 463 kts 257°
2026-05-04 14:28 54.59952 -45.19583 34151 ft 463 kts 257°
2026-05-04 14:29 54.53891 -45.39629 34152 ft 462 kts 257°
2026-05-04 14:30 54.50846 -45.49644 34154 ft 463 kts 257°
2026-05-04 14:31 54.46254 -45.64659 34155 ft 464 kts 257°
2026-05-04 14:32 54.40078 -45.84701 34161 ft 464 kts 257°
2026-05-04 14:32 54.36994 -45.94651 34161 ft 463 kts 257°
2026-05-04 14:33 54.33880 -46.04660 34162 ft 466 kts 257°
2026-05-04 14:33 54.30763 -46.14630 34159 ft 464 kts 257°
2026-05-04 14:34 54.27650 -46.24543 34160 ft 465 kts 256°
2026-05-04 14:34 54.24522 -46.34444 34165 ft 463 kts 257°
2026-05-04 14:35 54.21397 -46.44324 34160 ft 464 kts 257°
2026-05-04 14:35 54.18244 -46.54245 34161 ft 464 kts 257°
2026-05-04 14:36 54.15078 -46.64164 34161 ft 463 kts 257°
2026-05-04 14:36 54.11921 -46.74025 34167 ft 466 kts 256°
2026-05-04 14:37 54.08725 -46.83962 34169 ft 469 kts 255°
2026-05-04 14:37 54.05525 -46.93858 34168 ft 465 kts 255°
2026-05-04 14:38 54.02331 -47.03718 34169 ft 465 kts 255°
2026-05-04 14:38 53.99131 -47.13538 34174 ft 465 kts 255°
2026-05-04 14:39 53.95916 -47.23374 34170 ft 467 kts 254°
2026-05-04 14:39 53.92683 -47.33219 34174 ft 469 kts 254°
2026-05-04 14:40 53.87809 -47.47987 34143 ft 467 kts 255°
2026-05-04 14:40 53.84576 -47.57737 34139 ft 465 kts 255°
2026-05-04 14:41 53.81321 -47.67519 34144 ft 470 kts 253°
2026-05-04 14:42 53.74728 -47.87198 33916 ft 470 kts 253°
2026-05-04 14:42 53.73079 -47.92090 33761 ft 468 kts 253°
2026-05-04 14:42 53.71439 -47.96954 33636 ft 468 kts 253°
2026-05-04 14:43 53.68164 -48.06634 33522 ft 468 kts 253°
2026-05-04 14:43 53.64841 -48.16424 33518 ft 471 kts 253°
2026-05-04 14:44 53.61518 -48.26160 33519 ft 468 kts 253°
2026-05-04 14:44 53.58193 -48.35872 33515 ft 469 kts 253°
2026-05-04 14:45 53.54867 -48.45554 33520 ft 471 kts 253°
2026-05-04 14:45 53.51531 -48.55217 33514 ft 467 kts 253°
2026-05-04 14:46 53.48182 -48.64889 33523 ft 468 kts 253°
2026-05-04 14:46 53.44823 -48.74544 33523 ft 471 kts 252°
2026-05-04 14:47 53.41439 -48.84232 33525 ft 468 kts 252°
2026-05-04 14:47 53.38071 -48.93853 33525 ft 471 kts 252°
2026-05-04 14:48 53.34677 -49.03498 33513 ft 468 kts 252°
2026-05-04 14:48 53.31314 -49.13019 33499 ft 462 kts 251°
2026-05-04 14:49 53.27978 -49.22434 33518 ft 458 kts 250°
2026-05-04 14:49 53.24649 -49.31783 33476 ft 458 kts 250°
2026-05-04 14:50 53.21339 -49.41048 33447 ft 458 kts 250°
2026-05-04 14:50 53.17979 -49.50419 33445 ft 459 kts 251°
2026-05-04 14:51 53.14613 -49.59777 33418 ft 460 kts 250°
2026-05-04 14:51 53.11247 -49.69089 33379 ft 460 kts 250°
2026-05-04 14:52 53.07896 -49.78335 33389 ft 459 kts 249°
2026-05-04 14:52 53.04520 -49.87606 33388 ft 456 kts 249°
2026-05-04 14:53 53.01141 -49.96865 33370 ft 457 kts 249°
2026-05-04 14:53 52.99511 -50.01426 33357 ft 446 kts 255°
2026-05-04 14:53 52.98386 -50.06261 33392 ft 439 kts 261°
2026-05-04 14:54 52.96162 -50.15942 33369 ft 441 kts 258°
2026-05-04 14:54 52.93831 -50.25638 33368 ft 441 kts 258°
2026-05-04 14:55 52.91503 -50.35251 33368 ft 440 kts 258°
2026-05-04 14:55 52.89175 -50.44823 33350 ft 441 kts 258°
2026-05-04 14:56 52.86827 -50.54429 33349 ft 441 kts 258°
2026-05-04 14:56 52.84475 -50.64015 33348 ft 441 kts 258°
2026-05-04 14:57 52.82099 -50.73656 33354 ft 442 kts 257°
2026-05-04 14:57 52.79718 -50.83271 33355 ft 441 kts 258°
2026-05-04 14:58 52.77338 -50.92843 33354 ft 441 kts 257°
2026-05-04 14:58 52.74982 -51.02275 33354 ft 436 kts 257°
2026-05-04 14:59 52.72612 -51.11726 33353 ft 433 kts 257°
2026-05-04 15:00 52.69081 -51.25734 33351 ft 431 kts 257°
2026-05-04 15:00 52.66709 -51.35096 33353 ft 433 kts 257°
2026-05-04 15:01 52.63138 -51.49112 33353 ft 432 kts 257°
2026-05-04 15:01 52.60754 -51.58423 33354 ft 431 kts 257°
2026-05-04 15:02 52.58358 -51.67746 33360 ft 435 kts 256°
2026-05-04 15:02 52.55937 -51.77113 33361 ft 433 kts 256°
2026-05-04 15:03 52.53533 -51.86391 33360 ft 434 kts 256°
2026-05-04 15:03 52.51099 -51.95736 33361 ft 433 kts 256°
2026-05-04 15:04 52.48677 -52.05003 33358 ft 433 kts 256°
2026-05-04 15:04 52.46233 -52.14309 33359 ft 434 kts 256°
2026-05-04 15:05 52.43782 -52.23610 33359 ft 433 kts 256°
2026-05-04 15:05 52.41338 -52.32845 33360 ft 434 kts 256°
2026-05-04 15:06 52.38879 -52.42095 33356 ft 434 kts 256°
2026-05-04 15:07 52.35195 -52.55893 33360 ft 433 kts 256°
2026-05-04 15:07 52.32721 -52.65106 33356 ft 433 kts 256°
2026-05-04 15:08 52.30224 -52.74377 33365 ft 436 kts 256°
2026-05-04 15:08 52.27726 -52.83601 33363 ft 434 kts 256°
2026-05-04 15:09 52.25237 -52.92762 33339 ft 432 kts 256°
2026-05-04 15:09 52.22746 -53.01895 33334 ft 427 kts 256°
2026-05-04 15:10 52.19054 -53.15377 33340 ft 426 kts 256°
2026-05-04 15:11 52.15341 -53.28834 33335 ft 426 kts 256°
2026-05-04 15:11 52.12860 -53.37796 33334 ft 427 kts 256°
2026-05-04 15:12 52.10348 -53.46829 33334 ft 427 kts 256°
2026-05-04 15:12 52.07851 -53.55769 33334 ft 426 kts 256°
2026-05-04 15:13 52.05342 -53.64724 33330 ft 425 kts 256°
2026-05-04 15:13 52.02828 -53.73664 33344 ft 426 kts 255°
2026-05-04 15:14 52.00301 -53.82612 33340 ft 427 kts 255°
2026-05-04 15:14 51.97770 -53.91540 33342 ft 426 kts 255°
2026-05-04 15:15 51.95243 -54.00423 33345 ft 427 kts 255°
2026-05-04 15:15 51.92691 -54.09357 33339 ft 428 kts 255°
2026-05-04 15:16 51.88875 -54.22659 33319 ft 426 kts 255°
2026-05-04 15:17 51.85038 -54.35950 33324 ft 428 kts 255°
2026-05-04 15:17 51.81189 -54.49216 33323 ft 427 kts 255°
2026-05-04 15:18 51.79581 -54.53432 33330 ft 440 kts 246°
2026-05-04 15:18 51.78072 -54.57746 33337 ft 429 kts 253°
2026-05-04 15:19 51.73425 -54.70674 33333 ft 437 kts 249°
2026-05-04 15:19 51.68578 -54.83417 33330 ft 435 kts 248°
2026-05-04 15:20 51.65331 -54.91919 33324 ft 437 kts 249°
2026-05-04 15:20 51.62083 -55.00393 33314 ft 435 kts 248°
2026-05-04 15:21 51.58846 -55.08807 33299 ft 431 kts 248°
2026-05-04 15:22 51.54037 -55.21258 33282 ft 428 kts 246°
2026-05-04 15:22 51.49209 -55.33693 33273 ft 428 kts 246°
2026-05-04 15:23 51.45986 -55.41965 33275 ft 427 kts 246°
2026-05-04 15:23 51.42769 -55.50190 33274 ft 428 kts 246°
2026-05-04 15:24 51.36311 -55.66631 33273 ft 429 kts 246°
2026-05-04 15:25 51.33069 -55.74844 33280 ft 428 kts 246°
2026-05-04 15:26 51.28191 -55.87153 33279 ft 429 kts 245°
2026-05-04 15:26 51.23295 -55.99451 33280 ft 428 kts 246°
2026-05-04 15:27 51.18388 -56.11713 33276 ft 427 kts 246°
2026-05-04 15:28 51.13468 -56.23954 33278 ft 428 kts 246°
2026-05-04 15:29 51.08551 -56.36129 33277 ft 429 kts 246°
2026-05-04 15:30 50.97017 -56.64468 33275 ft 424 kts 245°
2026-05-04 15:31 50.92085 -56.76487 33274 ft 424 kts 244°
2026-05-04 15:32 50.83890 -56.96351 33257 ft 422 kts 243°
2026-05-04 15:34 50.75609 -57.16256 33256 ft 425 kts 241°
2026-05-04 15:34 50.70607 -57.28202 33253 ft 426 kts 242°
2026-05-04 15:35 50.65578 -57.40172 33256 ft 425 kts 242°
2026-05-04 15:36 50.60575 -57.52015 33253 ft 425 kts 242°
2026-05-04 15:36 50.57222 -57.59928 33253 ft 425 kts 242°
2026-05-04 15:37 50.53853 -57.67850 33258 ft 426 kts 241°
2026-05-04 15:37 50.50491 -57.75735 33261 ft 426 kts 240°
2026-05-04 15:38 50.47107 -57.83646 33261 ft 425 kts 241°
2026-05-04 15:38 50.43715 -57.91552 33260 ft 426 kts 240°
2026-05-04 15:39 50.40336 -57.99405 33241 ft 426 kts 240°
2026-05-04 15:40 50.35239 -58.11204 33220 ft 426 kts 240°
2026-05-04 15:40 50.31835 -58.19058 33193 ft 427 kts 241°
2026-05-04 15:41 50.28434 -58.26877 33174 ft 427 kts 240°
2026-05-04 15:41 50.25017 -58.34714 33164 ft 426 kts 240°
2026-05-04 15:42 50.21610 -58.42501 33167 ft 426 kts 240°
2026-05-04 15:42 50.18201 -58.50272 33163 ft 426 kts 241°
2026-05-04 15:43 50.14785 -58.58033 33163 ft 426 kts 240°
2026-05-04 15:43 50.11345 -58.65828 33166 ft 427 kts 240°
2026-05-04 15:44 50.07909 -58.73591 33170 ft 427 kts 240°
2026-05-04 15:44 50.04462 -58.81355 33171 ft 426 kts 240°
2026-05-04 15:45 50.01064 -58.88992 33170 ft 420 kts 239°
2026-05-04 15:45 49.97669 -58.96596 33167 ft 415 kts 239°
2026-05-04 15:46 49.94334 -59.04047 33166 ft 411 kts 238°
2026-05-04 15:46 49.90997 -59.11470 33164 ft 411 kts 238°
2026-05-04 15:47 49.87643 -59.18919 33167 ft 411 kts 238°
2026-05-04 15:47 49.84300 -59.26321 33164 ft 410 kts 238°
2026-05-04 15:48 49.80947 -59.33723 33164 ft 410 kts 238°
2026-05-04 15:48 49.75911 -59.44809 33162 ft 410 kts 238°
2026-05-04 15:49 49.72533 -59.52212 33158 ft 410 kts 238°
2026-05-04 15:49 49.69162 -59.59589 33173 ft 411 kts 238°
2026-05-04 15:50 49.65805 -59.66905 33201 ft 410 kts 237°
2026-05-04 15:50 49.62418 -59.74278 33215 ft 411 kts 237°
2026-05-04 15:51 49.59047 -59.81586 33224 ft 411 kts 237°
2026-05-04 15:51 49.55654 -59.88925 33220 ft 411 kts 237°
2026-05-04 15:52 49.52257 -59.96253 33220 ft 410 kts 237°
2026-05-04 15:52 49.48852 -60.03573 33221 ft 411 kts 237°
2026-05-04 15:53 49.45449 -60.10876 33222 ft 410 kts 237°
2026-05-04 15:53 49.42059 -60.18128 33223 ft 411 kts 237°
2026-05-04 15:54 49.38635 -60.25434 33223 ft 410 kts 237°
2026-05-04 15:54 49.35238 -60.32656 33218 ft 411 kts 237°
2026-05-04 15:55 49.31829 -60.39894 33220 ft 412 kts 237°
2026-05-04 15:55 49.28395 -60.47158 33222 ft 410 kts 237°
2026-05-04 15:56 49.24959 -60.54413 33217 ft 411 kts 237°
2026-05-04 15:56 49.21541 -60.61603 33219 ft 410 kts 237°
2026-05-04 15:57 49.18110 -60.68802 33226 ft 411 kts 236°
2026-05-04 15:57 49.14670 -60.76008 33225 ft 412 kts 236°
2026-05-04 15:58 49.11217 -60.83219 33223 ft 411 kts 236°
2026-05-04 15:58 49.07745 -60.90448 33225 ft 413 kts 236°
2026-05-04 15:59 49.04274 -60.97656 33221 ft 415 kts 236°
2026-05-04 15:59 49.00787 -61.04886 33216 ft 416 kts 235°
2026-05-04 16:00 48.97255 -61.12178 33218 ft 419 kts 234°
2026-05-04 16:00 48.93704 -61.19490 33232 ft 421 kts 233°
2026-05-04 16:01 48.90132 -61.26820 33272 ft 421 kts 233°
2026-05-04 16:01 48.86582 -61.34094 33314 ft 421 kts 233°
2026-05-04 16:02 48.83020 -61.41371 33350 ft 420 kts 233°
2026-05-04 16:03 48.77659 -61.52289 33393 ft 421 kts 233°
2026-05-04 16:03 48.74095 -61.59520 33392 ft 420 kts 233°
2026-05-04 16:04 48.70499 -61.66798 33398 ft 420 kts 233°
2026-05-04 16:04 48.65132 -61.77622 33398 ft 420 kts 232°
2026-05-04 16:05 48.61548 -61.84826 33395 ft 420 kts 232°
2026-05-04 16:06 48.56166 -61.95610 33396 ft 421 kts 233°
2026-05-04 16:07 48.48962 -62.09976 33395 ft 420 kts 233°
2026-05-04 16:08 48.41729 -62.24322 33394 ft 420 kts 233°
2026-05-04 16:09 48.32684 -62.42160 33430 ft 420 kts 232°
2026-05-04 16:10 48.25422 -62.56395 33428 ft 420 kts 232°
2026-05-04 16:11 48.18142 -62.70588 33432 ft 420 kts 232°
2026-05-04 16:12 48.07197 -62.91793 33431 ft 419 kts 232°
2026-05-04 16:13 47.99960 -63.05724 33428 ft 413 kts 231°
2026-05-04 16:14 47.92784 -63.19461 33429 ft 411 kts 231°
2026-05-04 16:16 47.83760 -63.36643 33442 ft 412 kts 231°
2026-05-04 16:17 47.74710 -63.53767 33468 ft 412 kts 231°
2026-05-04 16:18 47.67473 -63.67383 33445 ft 411 kts 230°
2026-05-04 16:19 47.58406 -63.84346 33448 ft 412 kts 230°
2026-05-04 16:20 47.49326 -64.01227 33462 ft 411 kts 230°
2026-05-04 16:22 47.40216 -64.18062 33581 ft 411 kts 230°
2026-05-04 16:23 47.29274 -64.38144 33642 ft 411 kts 230°
2026-05-04 16:25 47.18284 -64.58167 33645 ft 412 kts 230°
2026-05-04 16:26 47.05407 -64.81444 33641 ft 411 kts 229°
2026-05-04 16:28 46.96254 -64.97876 33625 ft 409 kts 228°
2026-05-04 16:29 46.83308 -65.20935 33626 ft 413 kts 227°
2026-05-04 16:31 46.74020 -65.37363 33629 ft 413 kts 227°
2026-05-04 16:32 46.62839 -65.57013 33631 ft 412 kts 227°
2026-05-04 16:33 46.55366 -65.70068 33701 ft 412 kts 227°
2026-05-04 16:34 46.49744 -65.79848 33724 ft 412 kts 227°
2026-05-04 16:35 46.38476 -65.99350 33722 ft 412 kts 226°
2026-05-04 16:36 46.32826 -66.09072 33723 ft 413 kts 226°
2026-05-04 16:37 46.27186 -66.18746 33723 ft 412 kts 226°
2026-05-04 16:38 46.19638 -66.31642 33720 ft 412 kts 226°
2026-05-04 16:39 46.10207 -66.47669 33720 ft 413 kts 226°
2026-05-04 16:40 46.02622 -66.60490 33715 ft 413 kts 226°
2026-05-04 16:41 45.93119 -66.76469 33720 ft 412 kts 226°
2026-05-04 16:43 45.83606 -66.92376 33728 ft 412 kts 226°
2026-05-04 16:43 45.77920 -67.01844 33728 ft 409 kts 225°
2026-05-04 16:45 45.66861 -67.20160 33727 ft 398 kts 224°
2026-05-04 16:46 45.57651 -67.35316 33715 ft 398 kts 224°
2026-05-04 16:47 45.50249 -67.47440 33705 ft 398 kts 224°
2026-05-04 16:48 45.42845 -67.59516 33704 ft 398 kts 224°
2026-05-04 16:49 45.35448 -67.71550 33706 ft 397 kts 224°
2026-05-04 16:50 45.27951 -67.83445 33719 ft 397 kts 223°
2026-05-04 16:51 45.22323 -67.92303 33750 ft 397 kts 223°
2026-05-04 16:52 45.14781 -68.04131 33784 ft 396 kts 223°
2026-05-04 16:53 45.09106 -68.12996 33800 ft 398 kts 223°
2026-05-04 16:54 45.01474 -68.24855 33788 ft 403 kts 224°
2026-05-04 16:55 44.89826 -68.42889 33772 ft 407 kts 224°
2026-05-04 16:56 44.80082 -68.57883 33785 ft 408 kts 224°
2026-05-04 16:57 44.74227 -68.66853 33775 ft 407 kts 223°
2026-05-04 16:58 44.66442 -68.78741 33775 ft 407 kts 223°
2026-05-04 17:00 44.54709 -68.96563 33807 ft 406 kts 222°
2026-05-04 17:01 44.44935 -69.11317 33979 ft 407 kts 220°
2026-05-04 17:02 44.37089 -69.23099 33961 ft 408 kts 220°
2026-05-04 17:03 44.31181 -69.31945 33993 ft 408 kts 220°
2026-05-04 17:03 44.25276 -69.40753 33967 ft 408 kts 220°
2026-05-04 17:04 44.17368 -69.52510 33872 ft 407 kts 220°
2026-05-04 17:05 44.09483 -69.64185 33800 ft 408 kts 220°
2026-05-04 17:06 44.03526 -69.72969 33795 ft 408 kts 219°
2026-05-04 17:07 43.98247 -69.80733 33798 ft 407 kts 219°
2026-05-04 17:07 43.93658 -69.87464 33797 ft 407 kts 219°
2026-05-04 17:08 43.87671 -69.96223 33815 ft 408 kts 219°
2026-05-04 17:09 43.83703 -70.02010 33813 ft 407 kts 219°
2026-05-04 17:09 43.79728 -70.07800 33809 ft 408 kts 219°
2026-05-04 17:10 43.69761 -70.22259 33787 ft 408 kts 219°
2026-05-04 17:11 43.65762 -70.28040 33784 ft 408 kts 219°
2026-05-04 17:12 43.59763 -70.36688 33784 ft 408 kts 219°
2026-05-04 17:13 43.49762 -70.51048 33794 ft 409 kts 219°
2026-05-04 17:14 43.41929 -70.62710 33803 ft 411 kts 223°
2026-05-04 17:15 43.36371 -70.72007 33794 ft 412 kts 224°
2026-05-04 17:16 43.29076 -70.84514 33795 ft 409 kts 224°
2026-05-04 17:17 43.21959 -70.96668 33793 ft 396 kts 223°
2026-05-04 17:18 43.15015 -71.08474 33791 ft 388 kts 223°
2026-05-04 17:19 43.08129 -71.20138 33798 ft 389 kts 223°
2026-05-04 17:20 43.01214 -71.31801 33806 ft 390 kts 224°
2026-05-04 17:20 42.95958 -71.40637 33811 ft 393 kts 224°